Time,TemperatureF,DewpointF,PressureIn,WindDirection,WindDirectionDegrees,WindSpeedMPH,WindSpeedGustMPH,Humidity,HourlyPrecipIn,Conditions,Clouds,dailyrainin,SoftwareType,DateUTC
2013-07-02 00:11:00,59.0,58.0,-100.00,North,-999,-999.0,-999.0,97,-99.99,,,-99.99,,2013-07-02 05:11:00,
2013-07-02 00:22:00,59.0,58.0,-100.00,NE,50,0.0,1.0,97,0.00,,,-99.99,,2013-07-02 05:22:00,
2013-07-02 00:32:00,58.0,58.0,-100.00,NE,50,1.0,1.0,97,0.00,,,-99.99,,2013-07-02 05:32:00,
2013-07-02 00:43:00,58.0,58.0,-100.00,NE,50,0.0,2.0,99,0.00,,,-99.99,,2013-07-02 05:43:00,
2013-07-02 00:53:00,57.0,57.0,-100.00,NE,50,0.0,1.0,99,0.00,,,-99.99,,2013-07-02 05:53:00,
2013-07-02 01:11:00,58.0,58.0,-100.00,NNE,25,0.0,0.0,99,0.00,,,-99.99,,2013-07-02 06:11:00,
2013-07-02 01:23:00,58.0,58.0,-100.00,ENE,60,0.0,0.0,99,0.00,,,-99.99,,2013-07-02 06:23:00,
2013-07-02 01:34:00,58.0,58.0,-100.00,ENE,75,0.0,0.0,99,0.00,,,-99.99,,2013-07-02 06:34:00,
2013-07-02 01:43:00,58.0,58.0,-100.00,ENE,75,0.0,0.0,99,0.00,,,-99.99,,2013-07-02 06:43:00,
2013-07-02 01:53:00,58.0,58.0,-100.00,ENE,75,0.0,0.0,99,0.00,,,-99.99,,2013-07-02 06:53:00,
2013-07-02 02:11:00,58.0,58.0,-100.00,ENE,75,0.0,0.0,99,0.00,,,-99.99,,2013-07-02 07:11:00,
2013-07-02 02:34:00,58.0,58.0,-100.00,ENE,75,0.0,0.0,99,0.00,,,-99.99,,2013-07-02 07:34:00,
2013-07-02 02:52:00,57.0,57.0,-100.00,ENE,70,0.0,0.0,99,0.00,,,-99.99,,2013-07-02 07:52:00,
2013-07-02 03:22:00,57.0,57.0,-100.00,ENE,70,0.0,0.0,99,0.00,,,-99.99,,2013-07-02 08:22:00,
2013-07-02 03:33:00,57.0,57.0,-100.00,ENE,70,0.0,0.0,99,0.00,,,-99.99,,2013-07-02 08:33:00,
2013-07-02 03:44:00,57.0,57.0,-100.00,East,80,0.0,0.0,99,0.00,,,-99.99,,2013-07-02 08:44:00,
2013-07-02 04:11:00,55.0,55.0,-100.00,ESE,115,0.0,0.0,99,0.00,,,-99.99,,2013-07-02 09:11:00,
2013-07-02 04:22:00,55.0,55.0,-100.00,ESE,115,0.0,0.0,99,0.00,,,-99.99,,2013-07-02 09:22:00,
2013-07-02 04:33:00,55.0,55.0,-100.00,ESE,115,0.0,1.0,99,0.00,,,-99.99,,2013-07-02 09:33:00,
2013-07-02 04:43:00,54.0,54.0,-100.00,East,90,1.0,1.0,99,0.00,,,-99.99,,2013-07-02 09:43:00,
2013-07-02 04:52:00,55.0,55.0,-100.00,East,90,0.0,1.0,99,0.00,,,-99.99,,2013-07-02 09:52:00,
2013-07-02 05:01:00,55.0,55.0,-100.00,East,90,0.0,1.0,99,0.00,,,-99.99,,2013-07-02 10:01:00,
2013-07-02 05:11:00,54.0,54.0,-100.00,East,90,0.0,0.0,99,0.00,,,-99.99,,2013-07-02 10:11:00,
2013-07-02 05:33:00,54.0,54.0,-100.00,East,90,0.0,0.0,99,0.00,,,-99.99,,2013-07-02 10:33:00,
2013-07-02 05:43:00,54.0,54.0,-100.00,East,90,0.0,0.0,99,0.00,,,-99.99,,2013-07-02 10:43:00,
2013-07-02 06:01:00,54.0,54.0,-100.00,East,95,0.0,1.0,99,0.00,,,-99.99,,2013-07-02 11:01:00,
2013-07-02 06:11:00,54.0,54.0,-100.00,East,100,0.0,0.0,99,0.00,,,-99.99,,2013-07-02 11:11:00,
2013-07-02 06:22:00,54.0,54.0,-100.00,East,100,0.0,0.0,99,0.00,,,-99.99,,2013-07-02 11:22:00,
2013-07-02 06:33:00,54.0,54.0,-100.00,ESE,105,0.0,0.0,99,0.00,,,-99.99,,2013-07-02 11:33:00,
2013-07-02 06:42:00,54.0,54.0,-100.00,ESE,105,0.0,0.0,99,0.00,,,-99.99,,2013-07-02 11:42:00,
2013-07-02 06:52:00,55.0,55.0,-100.00,East,100,0.0,0.0,99,0.00,,,-99.99,,2013-07-02 11:52:00,
2013-07-02 07:01:00,56.0,56.0,-100.00,East,90,0.0,1.0,99,0.00,,,-99.99,,2013-07-02 12:01:00,
2013-07-02 07:11:00,56.0,56.0,-100.00,East,90,0.0,0.0,99,0.00,,,-99.99,,2013-07-02 12:11:00,
2013-07-02 07:23:00,57.0,57.0,-100.00,East,90,0.0,0.0,99,0.00,,,-99.99,,2013-07-02 12:23:00,
2013-07-02 07:33:00,58.0,58.0,-100.00,NNE,25,0.0,1.0,99,0.00,,,-99.99,,2013-07-02 12:33:00,
2013-07-02 07:43:00,60.0,60.0,-100.00,NNW,345,0.0,2.0,99,0.00,,,-99.99,,2013-07-02 12:43:00,
2013-07-02 07:52:00,60.0,60.0,-100.00,SW,225,1.0,2.0,99,0.00,,,-99.99,,2013-07-02 12:52:00,
2013-07-02 08:01:00,61.0,60.0,-100.00,WSW,240,3.0,4.0,96,0.00,,,-99.99,,2013-07-02 13:01:00,
2013-07-02 08:11:00,64.0,61.0,-100.00,WSW,250,3.0,4.0,90,0.00,,,-99.99,,2013-07-02 13:11:00,
2013-07-02 08:34:00,65.0,61.0,-100.00,WSW,245,2.0,6.0,86,0.00,,,-99.99,,2013-07-02 13:34:00,
2013-07-02 08:43:00,67.0,61.0,-100.00,SW,235,2.0,4.0,83,0.00,,,-99.99,,2013-07-02 13:43:00,
2013-07-02 09:01:00,69.0,61.0,-100.00,WSW,245,4.0,6.0,75,0.00,,,-99.99,,2013-07-02 14:01:00,
2013-07-02 11:33:00,80.0,58.0,-100.00,NNE,15,4.0,6.0,46,0.00,,,-99.99,,2013-07-02 16:33:00,
2013-07-02 11:43:00,81.0,59.0,-100.00,ENE,60,1.0,6.0,46,0.00,,,-99.99,,2013-07-02 16:43:00,
2013-07-02 12:11:00,83.0,59.0,-100.00,East,90,4.0,9.0,44,0.00,,,-99.99,,2013-07-02 17:11:00,
2013-07-02 12:43:00,83.0,59.0,-100.00,East,90,5.0,10.0,44,0.00,,,-99.99,,2013-07-02 17:43:00,
2013-07-02 12:53:00,84.0,58.0,-100.00,East,90,2.0,8.0,41,0.00,,,-99.99,,2013-07-02 17:53:00,
2013-07-02 13:02:00,84.0,58.0,-100.00,ESE,110,4.0,7.0,41,0.00,,,-99.99,,2013-07-02 18:02:00,
2013-07-02 13:43:00,82.0,56.0,-100.00,SE,130,9.0,13.0,40,0.00,,,-99.99,,2013-07-02 18:43:00,
2013-07-02 13:53:00,83.0,56.0,-100.00,ESE,120,6.0,11.0,40,0.00,,,-99.99,,2013-07-02 18:53:00,
2013-07-02 14:12:00,84.0,56.0,-100.00,ENE,75,4.0,9.0,38,0.00,,,-99.99,,2013-07-02 19:12:00,
2013-07-02 14:34:00,84.0,56.0,-100.00,ESE,110,6.0,12.0,38,0.00,,,-99.99,,2013-07-02 19:34:00,
2013-07-02 14:43:00,84.0,56.0,-100.00,ESE,115,7.0,16.0,37,0.00,,,-99.99,,2013-07-02 19:43:00,
2013-07-02 15:11:00,86.0,56.0,-100.00,East,80,4.0,12.0,35,0.00,,,-99.99,,2013-07-02 20:11:00,
2013-07-02 15:33:00,86.0,56.0,-100.00,East,85,8.0,12.0,35,0.00,,,-99.99,,2013-07-02 20:33:00,
2013-07-02 15:43:00,86.0,55.0,-100.00,SE,125,7.0,12.0,34,0.00,,,-99.99,,2013-07-02 20:43:00,
2013-07-02 15:52:00,86.0,55.0,-100.00,ENE,75,7.0,14.0,34,0.00,,,-99.99,,2013-07-02 20:52:00,
2013-07-02 16:11:00,86.0,55.0,-100.00,NNE,30,7.0,10.0,35,0.00,,,-99.99,,2013-07-02 21:11:00,
2013-07-02 16:43:00,85.0,54.0,-100.00,East,95,5.0,9.0,34,0.00,,,-99.99,,2013-07-02 21:43:00,
2013-07-02 16:52:00,82.0,53.0,-100.00,SE,145,6.0,12.0,37,0.00,,,-99.99,,2013-07-02 21:52:00,
2013-07-02 17:11:00,81.0,53.0,-100.00,SE,135,7.0,12.0,37,0.00,,,-99.99,,2013-07-02 22:11:00,
2013-07-02 17:34:00,82.0,54.0,-100.00,East,85,2.0,8.0,38,0.00,,,-99.99,,2013-07-02 22:34:00,
2013-07-02 17:43:00,82.0,55.0,-100.00,ESE,115,3.0,6.0,39,0.00,,,-99.99,,2013-07-02 22:43:00,
2013-07-02 17:53:00,82.0,54.0,-100.00,ESE,110,3.0,6.0,39,0.00,,,-99.99,,2013-07-02 22:53:00,
2013-07-02 18:11:00,78.0,58.0,-100.00,NE,40,2.0,3.0,51,0.00,,,-99.99,,2013-07-02 23:11:00,
2013-07-02 18:33:00,75.0,56.0,-100.00,ENE,70,9.0,21.0,51,0.00,,,-99.99,,2013-07-02 23:33:00,
2013-07-02 18:44:00,74.0,55.0,-100.00,East,80,6.0,12.0,50,0.00,,,-99.99,,2013-07-02 23:44:00,
2013-07-02 18:52:00,75.0,55.0,-100.00,NNE,30,3.0,9.0,50,0.00,,,-99.99,,2013-07-02 23:52:00,
2013-07-02 19:01:00,75.0,55.0,-100.00,NNE,30,3.0,9.0,50,0.00,,,-99.99,,2013-07-03 00:01:00,
2013-07-02 19:11:00,75.0,56.0,-100.00,NE,50,2.0,4.0,52,0.00,,,-99.99,,2013-07-03 00:11:00,
2013-07-02 19:33:00,74.0,57.0,-100.00,NNE,25,0.0,3.0,54,0.00,,,-99.99,,2013-07-03 00:33:00,
2013-07-02 19:52:00,73.0,58.0,-100.00,SW,215,3.0,4.0,58,0.00,,,-99.99,,2013-07-03 00:52:00,
2013-07-02 20:11:00,72.0,59.0,-100.00,North,-999,-999.0,-999.0,64,0.00,,,-99.99,,2013-07-03 01:11:00,
2013-07-02 20:33:00,71.0,61.0,-100.00,NE,50,6.0,7.0,69,0.00,,,-99.99,,2013-07-03 01:33:00,
2013-07-02 20:42:00,70.0,59.0,-100.00,ENE,70,3.0,5.0,68,0.00,,,-99.99,,2013-07-03 01:42:00,
2013-07-02 20:54:00,70.0,59.0,-100.00,ENE,60,4.0,6.0,69,0.00,,,-99.99,,2013-07-03 01:54:00,
2013-07-02 21:12:00,69.0,59.0,-100.00,East,85,2.0,4.0,71,0.00,,,-99.99,,2013-07-03 02:12:00,
2013-07-02 21:36:00,68.0,59.0,-100.00,ENE,65,4.0,6.0,72,0.00,,,-99.99,,2013-07-03 02:36:00,
2013-07-02 21:43:00,67.0,59.0,-100.00,NE,55,4.0,4.0,75,0.00,,,-99.99,,2013-07-03 02:43:00,
2013-07-02 21:54:00,66.0,60.0,-100.00,NE,40,1.0,4.0,80,0.00,,,-99.99,,2013-07-03 02:54:00,
2013-07-02 22:12:00,64.0,60.0,-100.00,ENE,60,2.0,2.0,87,0.00,,,-99.99,,2013-07-03 03:12:00,
2013-07-02 22:35:00,63.0,60.0,-100.00,NE,40,0.0,2.0,88,0.00,,,-99.99,,2013-07-03 03:35:00,
2013-07-02 22:45:00,63.0,60.0,-100.00,NE,40,1.0,3.0,91,0.00,,,-99.99,,2013-07-03 03:45:00,
2013-07-02 23:01:00,61.0,59.0,-100.00,North,350,0.0,2.0,93,0.00,,,-99.99,,2013-07-03 04:01:00,
2013-07-02 23:11:00,61.0,59.0,-100.00,North,350,0.0,2.0,93,0.00,,,-99.99,,2013-07-03 04:11:00,
2013-07-02 23:22:00,61.0,60.0,-100.00,North,350,0.0,1.0,94,0.00,,,-99.99,,2013-07-03 04:22:00,
2013-07-02 23:33:00,60.0,58.0,-100.00,NNW,340,0.0,2.0,95,0.00,,,-99.99,,2013-07-03 04:33:00,
2013-07-02 23:52:00,59.0,58.0,-100.00,NNW,340,2.0,2.0,96,0.00,,,-99.99,,2013-07-03 04:52:00,